• In France
  • List of Countries
  • For 7 days
  • Water Temperature
  • Satellite Maps
  • Weather Map
  • Weather Widgets
  • user-avatar
    Login

    Hourly Weather Ch'ŏngjin

    Today, 22 August, Wednesday

    Time Temperature Precipitation Wind Pressure Humidity
    00:00 +23°C° 0 mm 2 mps 753 mmHg 84%
    01:00 +21°C° 0 mm 2 mps 753 mmHg 85%
    02:00 +21°C° 0 mm 2 mps 754 mmHg 85%
    03:00 +21°C° 0 mm 2 mps 754 mmHg 85%
    04:00 +21°C° 0 mm 2 mps 754 mmHg 85%
    05:00 +20°C° 0 mm 2 mps 755 mmHg 85%
    06:00 +20°C° 0 mm 2 mps 755 mmHg 84%
    07:00 +24°C° 0 mm 2 mps 755 mmHg 78%
    08:00 +26°C° 0 mm 1 mps 756 mmHg 71%
    09:00 +28°C° 0 mm 1 mps 756 mmHg 64%
    10:00 +29°C° 0 mm 1 mps 756 mmHg 62%
    11:00 +30°C° 0 mm 2 mps 756 mmHg 59%
    12:00 +32°C° 0 mm 2 mps 756 mmHg 57%
    13:00 +31°C° 0 mm 2 mps 756 mmHg 60%
    14:00 +31°C° 0 mm 2 mps 756 mmHg 63%
    15:00 +30°C° 0 mm 2 mps 756 mmHg 66%
    16:00 +29°C° 0 mm 2 mps 756 mmHg 72%
    17:00 +28°C° 0 mm 2 mps 756 mmHg 78%
    18:00 +27°C° 0 mm 2 mps 756 mmHg 84%
    19:00 +26°C° 0 mm 1 mps 756 mmHg 88%
    20:00 +25°C° 0 mm 1 mps 757 mmHg 92%
    21:00 +24°C° 0 mm 1 mps 757 mmHg 96%
    22:00 +24°C° 0 mm 1 mps 757 mmHg 96%
    23:00 +24°C° 0 mm 1 mps 757 mmHg 95%

    Tomorrow, 23 August, Thursday

    Time Temperature Precipitation Wind Pressure Humidity
    00:00 +24°C° 0 mm 1 mps 757 mmHg 95%
    01:00 +24°C° 0 mm 1 mps 757 mmHg 94%
    02:00 +24°C° 0 mm 1 mps 757 mmHg 94%
    03:00 +24°C° 0 mm 1 mps 757 mmHg 93%
    04:00 +24°C° 0.8 mm 1 mps 757 mmHg 93%
    05:00 +24°C° 0.8 mm 1 mps 757 mmHg 94%
    06:00 +24°C° 0.8 mm 1 mps 758 mmHg 95%
    07:00 +24°C° 1.1 mm 1 mps 758 mmHg 95%
    08:00 +25°C° 1.1 mm 2 mps 758 mmHg 94%
    09:00 +25°C° 1.1 mm 2 mps 759 mmHg 94%
    10:00 +25°C° 1.9 mm 2 mps 758 mmHg 95%
    11:00 +25°C° 1.9 mm 3 mps 758 mmHg 96%
    12:00 +25°C° 1.9 mm 3 mps 758 mmHg 97%
    13:00 +24°C° 1.2 mm 3 mps 758 mmHg 97%
    14:00 +23°C° 1.2 mm 4 mps 757 mmHg 98%
    15:00 +23°C° 1.2 mm 4 mps 757 mmHg 98%
    16:00 +23°C° 1.8 mm 4 mps 757 mmHg 98%
    17:00 +23°C° 1.8 mm 4 mps 757 mmHg 98%
    18:00 +22°C° 1.8 mm 4 mps 756 mmHg 99%
    19:00 +22°C° 3.8 mm 4 mps 756 mmHg 99%
    20:00 +22°C° 3.8 mm 4 mps 756 mmHg 98%
    21:00 +22°C° 3.8 mm 4 mps 756 mmHg 98%
    22:00 +22°C° 5.2 mm 4 mps 756 mmHg 98%
    23:00 +22°C° 5.2 mm 4 mps 755 mmHg 98%

    Day after tomorrow, 24 August, Friday

    Time Temperature Precipitation Wind Pressure Humidity
    00:00 +22°C° 5.2 mm 3 mps 755 mmHg 98%
    01:00 +22°C° 2.6 mm 4 mps 754 mmHg 98%
    02:00 +22°C° 2.6 mm 4 mps 753 mmHg 98%
    03:00 +22°C° 2.6 mm 5 mps 753 mmHg 99%
    04:00 +22°C° 1.3 mm 5 mps 752 mmHg 99%
    05:00 +22°C° 1.3 mm 5 mps 751 mmHg 99%
    06:00 +22°C° 1.3 mm 5 mps 751 mmHg 99%
    07:00 +22°C° 1.1 mm 5 mps 751 mmHg 99%
    08:00 +22°C° 1.1 mm 5 mps 751 mmHg 98%
    09:00 +22°C° 1.1 mm 5 mps 751 mmHg 98%
    10:00 +21°C° 1.4 mm 5 mps 750 mmHg 98%
    11:00 +21°C° 1.4 mm 6 mps 750 mmHg 98%
    12:00 +21°C° 1.4 mm 6 mps 750 mmHg 98%
    13:00 +21°C° 2.6 mm 6 mps 749 mmHg 98%
    14:00 +21°C° 2.6 mm 5 mps 749 mmHg 98%
    15:00 +21°C° 2.6 mm 5 mps 748 mmHg 98%
    16:00 +21°C° 2.6 mm 6 mps 748 mmHg 98%
    17:00 +21°C° 2.6 mm 6 mps 747 mmHg 98%
    18:00 +21°C° 2.6 mm 7 mps 747 mmHg 98%
    19:00 +21°C° 5.2 mm 7 mps 746 mmHg 98%
    20:00 +21°C° 5.2 mm 7 mps 746 mmHg 98%
    21:00 +21°C° 5.2 mm 7 mps 745 mmHg 98%
    22:00 +21°C° 7.3 mm 8 mps 745 mmHg 98%
    23:00 +21°C° 7.3 mm 9 mps 744 mmHg 98%

    25 August, Saturday

    Time Temperature Precipitation Wind Pressure Humidity
    00:00 +21°C° 7.3 mm 10 mps 744 mmHg 99%
    01:00 +21°C° 5.1 mm 9 mps 743 mmHg 99%
    02:00 +22°C° 5.1 mm 8 mps 743 mmHg 99%
    03:00 +22°C° 5.1 mm 7 mps 743 mmHg 99%
    04:00 +22°C° 1.3 mm 6 mps 743 mmHg 97%
    05:00 +22°C° 1.3 mm 5 mps 743 mmHg 96%
    06:00 +21°C° 1.3 mm 4 mps 743 mmHg 95%
    07:00 +24°C° 0 mm 3 mps 744 mmHg 90%
    08:00 +27°C° 0 mm 2 mps 744 mmHg 85%
    09:00 +29°C° 0 mm 2 mps 745 mmHg 79%
    10:00 +30°C° 0 mm 2 mps 745 mmHg 74%
    11:00 +31°C° 0 mm 2 mps 745 mmHg 69%
    12:00 +34°C° 0 mm 3 mps 746 mmHg 64%
    13:00 +31°C° 0.1 mm 3 mps 746 mmHg 72%
    14:00 +30°C° 0.1 mm 3 mps 746 mmHg 80%
    15:00 +29°C° 0.1 mm 3 mps 746 mmHg 88%
    16:00 +29°C° 0.1 mm 3 mps 746 mmHg 90%
    17:00 +28°C° 0.1 mm 3 mps 747 mmHg 92%
    18:00 +28°C° 0.1 mm 3 mps 747 mmHg 93%
    19:00 +27°C° 0.1 mm 3 mps 748 mmHg 94%
    20:00 +26°C° 0.1 mm 2 mps 749 mmHg 94%
    21:00 +25°C° 0.1 mm 2 mps 749 mmHg 95%
    22:00 +24°C° 0 mm 2 mps 750 mmHg 94%
    23:00 +23°C° 0 mm 2 mps 750 mmHg 93%

    26 August, Sunday

    Time Temperature Precipitation Wind Pressure Humidity
    00:00 +23°C° 0 mm 2 mps 750 mmHg 92%
    01:00 +21°C° 0 mm 2 mps 750 mmHg 90%
    02:00 +21°C° 0 mm 2 mps 750 mmHg 89%
    03:00 +20°C° 0 mm 2 mps 750 mmHg 87%
    04:00 +20°C° 0 mm 2 mps 751 mmHg 87%
    05:00 +20°C° 0 mm 2 mps 751 mmHg 86%
    06:00 +19°C° 0 mm 2 mps 752 mmHg 86%
    07:00 +23°C° 0 mm 2 mps 752 mmHg 79%
    08:00 +25°C° 0 mm 2 mps 752 mmHg 73%
    09:00 +27°C° 0 mm 1 mps 753 mmHg 66%
    10:00 +28°C° 0 mm 2 mps 753 mmHg 62%
    11:00 +30°C° 0 mm 2 mps 753 mmHg 59%
    12:00 +31°C° 0 mm 3 mps 753 mmHg 55%
    13:00 +30°C° 0 mm 3 mps 752 mmHg 58%
    14:00 +30°C° 0 mm 3 mps 752 mmHg 60%
    15:00 +30°C° 0 mm 3 mps 752 mmHg 63%
    16:00 +29°C° 0.1 mm 2 mps 753 mmHg 70%
    17:00 +28°C° 0.1 mm 2 mps 753 mmHg 76%
    18:00 +27°C° 0.1 mm 1 mps 753 mmHg 82%
    19:00 +26°C° 0 mm 1 mps 754 mmHg 84%
    20:00 +24°C° 0 mm 2 mps 754 mmHg 86%
    21:00 +23°C° 0 mm 2 mps 755 mmHg 88%
    22:00 +21°C° 0 mm 2 mps 755 mmHg 86%
    23:00 +21°C° 0 mm 2 mps 755 mmHg 84%

    27 August, Monday

    Time Temperature Precipitation Wind Pressure Humidity
    00:00 +21°C° 0 mm 2 mps 755 mmHg 82%
    01:00 +20°C° 0 mm 2 mps 755 mmHg 82%
    02:00 +20°C° 0 mm 3 mps 756 mmHg 82%
    03:00 +20°C° 0 mm 3 mps 756 mmHg 82%
    04:00 +20°C° 0 mm 3 mps 756 mmHg 82%
    05:00 +20°C° 0 mm 3 mps 756 mmHg 82%
    06:00 +19°C° 0 mm 3 mps 757 mmHg 82%
    07:00 +22°C° 0 mm 3 mps 757 mmHg 76%
    08:00 +25°C° 0 mm 2 mps 757 mmHg 69%
    09:00 +28°C° 0 mm 2 mps 757 mmHg 63%
    10:00 +28°C° 0 mm 2 mps 757 mmHg 62%
    11:00 +29°C° 0 mm 2 mps 757 mmHg 61%
    12:00 +30°C° 0 mm 2 mps 757 mmHg 60%
    13:00 +30°C° 0 mm 2 mps 756 mmHg 61%
    14:00 +30°C° 0 mm 2 mps 756 mmHg 63%
    15:00 +30°C° 0 mm 2 mps 756 mmHg 64%
    16:00 +29°C° 0 mm 2 mps 756 mmHg 70%
    17:00 +28°C° 0 mm 1 mps 756 mmHg 76%
    18:00 +27°C° 0 mm 1 mps 756 mmHg 83%
    19:00 +26°C° 0 mm 1 mps 756 mmHg 84%
    20:00 +25°C° 0 mm 1 mps 757 mmHg 86%
    21:00 +23°C° 0 mm 1 mps 757 mmHg 88%
    22:00 +23°C° 0 mm 1 mps 757 mmHg 87%
    23:00 +23°C° 0 mm 1 mps 757 mmHg 86%
    Show more